Tracking 35331 objects as of 15-Sep-2026
HD Live streaming from Space Station
objects crossing your sky now

COSMOS 57 DEB


COSMOS 57 DEB is no longer on orbit


NORAD ID: 1147
Int'l Code: 1965-012BB
Launch date: February 22, 1965
Source: Commonwealth of Independent States (former USSR) (CIS)
Launch site: TYURATAM MISSILE AND SPACE COMPLEX (TTMTR)
Decay date: 1965-03-17

Note: This is SATELLITE DEBRIS
Your satellite tracking list
Your tracking list is empty




NASA's NSSDC Master Catalog

Two Line Element Set (TLE):
1 01147U 65012 BB 65067.08765743  .00601669 +69428-3 +00000-0 0  9991
2 01147 064.6679 251.3609 0230329 066.5632 295.8424 15.82322639002171
Source of the keplerian elements: AFSPC